Regional Weather Roundup
Issued by NWS Midland/Odessa, TX

Skip options and go directly to product.
Home | Oldest Version | Previous Version | Current Version | All | Text Only | Save Text | Print | Product List | Glossary Off

Skip product version selection by date and time.   

987
ASUS44 KMAF 080810
RWRMAF
MIDLAND AREA WEATHER ROUNDUP
NATIONAL WEATHER SERVICE MIDLAND TX
200 AM CST MON FEB 08 2016

...IN SOUTHWEST TEXAS AND SOUTHEAST NEW MEXICO...

CITY           SKY/WX    TMP DP  RH WIND       PRES   REMARKS
ALPINE         CLOUDY    38  17  42 CALM      30.38S
ANDREWS        FAIR      38  19  48 NE9       30.39R WCI  31
ARTESIA        CLOUDY    37  21  52 N12       30.41R WCI  30
BIG SPRING     CLOUDY    40  17  40 NE18G25   30.40R WCI  30
CARLSBAD       CLOUDY    41  22  46 E12       30.38R WCI  34
DRYDEN           N/A     48  20  32 N9        30.30R
FORT STOCKTON  CLOUDY    44  23  43 SE9       30.34R WCI  39
GUAD PASS      CLOUDY    42  15  33 NE35      30.33F WCI  31
HOBBS          CLOUDY    36  18  48 NE13      30.41R WCI  27
MARFA          CLOUDY    34  13  41 N6        30.32F WCI  29
MIDLAND AIRPK  PTCLDY    42  20  41 NE16      30.39R WCI  34
MIDLAND INTL   CLOUDY    42  21  43 NE23      30.37R WCI  33
ODESSA         CLOUDY    41  22  46 NE21      30.38R WCI  32
PECOS          CLOUDY    42  20  43 N6        30.36R WCI  38
PRESIDIO       FAIR      52  13  21 W12       30.27R
SEMINOLE       CLOUDY    37  17  45 NE14G20   30.41R WCI  28
SNYDER           N/A     38  18  43 N13       30.40R WCI  30
WINK           CLOUDY    42  22  44 E5        30.35R WCI  39
$$
...OTHER STATIONS IN TEXAS...

CITY           SKY/WX    TMP DP  RH WIND       PRES   REMARKS
ABILENE        CLEAR     38  22  52 N7        30.37R WCI  33
AMARILLO       CLOUDY    30  12  47 NW9       30.42S WCI  22
AUSTIN         CLEAR     46  35  65 N14       30.21R WCI  40
BROWNSVILLE    CLOUDY    54  51  90 NE5       30.16F
CORPUS CHRISTI MOCLDY    48  45  89 S3        30.16S
DALLAS FTW     PTCLDY    47  22  37 N15       30.28S
DEL RIO        CLOUDY    54  23  30 N12       30.23R
EL PASO        MOCLDY    43  15  32 NW5       30.29F
HOUSTON INT    PTCLDY    47  39  74 CALM      30.19S
LUBBOCK        CLOUDY    27  14  58 N7        30.43R WCI  19
SAN ANGELO     CLEAR     46  21  37 NE20G28   30.35R WCI  38
SAN ANTONIO    CLEAR     48  30  49 N10       30.21S
WACO           CLEAR     45  30  55 NW9       30.27R
WICHITA FALLS  NOT AVBL
$$
...OTHER LOCATIONS IN NEW MEXICO...

CITY           SKY/WX    TMP DP  RH WIND       PRES   REMARKS
ALAMAGORDO     CLOUDY    37  14  38 E5        30.32S WCI  34
ALBUQUERQUE    CLOUDY    32  18  56 CALM      30.41S
CANNON AFB     CLOUDY    24  14  66 NE7       30.43S WCI  16
CLOVIS         CLOUDY    21  10  63 N8        30.44S WCI  12
HOLLOMAN AFB   CLOUDY    30  11  44 NE6       30.31S WCI  24
ROSWELL        CLOUDY    37  18  46 NE14      30.43R WCI  28
RUIDOSO          N/A     32  14  47 S8        30.42S WCI  25
SANTA FE       CLOUDY    22  17  81 N7        30.39F WCI  13
TRUTH OR CONSE CLEAR     41  16  36 N6        30.36S WCI  37
TUCUMCARI      CLOUDY    20  13  74 N5        30.45S WCI  13
$$

USA.gov is the U.S. government's official web portal to all federal, state and local government web resources and services.